TimeMDT,TemperatureF,Dew PointF,Humidity,Sea Level PressureIn,VisibilityMPH,Wind Direction,Wind SpeedMPH,Gust SpeedMPH,PrecipitationIn,Events,Conditions,WindDirDegrees,DateUTC
12:15 AM,41.4,24.6,51,30.30,10.0,SE,3.5,-,N/A,,Clear,130,2012-10-10 06:15:00
12:35 AM,36.5,23.0,58,30.31,10.0,Calm,Calm,-,N/A,,Clear,0,2012-10-10 06:35:00
12:55 AM,32.2,18.3,57,30.31,10.0,WSW,4.6,-,N/A,,Clear,240,2012-10-10 06:55:00
1:15 AM,32.2,18.1,56,30.31,10.0,West,3.5,-,N/A,,Clear,280,2012-10-10 07:15:00
1:35 AM,27.1,18.7,70,30.32,10.0,Calm,Calm,-,N/A,,Clear,0,2012-10-10 07:35:00
1:55 AM,29.1,19.2,67,30.32,10.0,Calm,Calm,-,N/A,,Clear,0,2012-10-10 07:55:00
2:15 AM,28.4,18.0,65,30.32,10.0,Calm,Calm,-,N/A,,Clear,0,2012-10-10 08:15:00
2:35 AM,27.7,18.1,67,30.32,10.0,Calm,Calm,-,N/A,,Clear,0,2012-10-10 08:35:00
2:55 AM,26.8,16.5,65,30.32,10.0,Calm,Calm,-,N/A,,Clear,0,2012-10-10 08:55:00
3:15 AM,25.7,17.1,70,30.32,10.0,Calm,Calm,-,N/A,,Clear,0,2012-10-10 09:15:00
3:35 AM,25.9,17.4,70,30.32,10.0,Calm,Calm,-,N/A,,Clear,0,2012-10-10 09:35:00
3:55 AM,25.7,17.1,70,30.32,10.0,Calm,Calm,-,N/A,,Clear,0,2012-10-10 09:55:00
4:15 AM,23.4,16.0,73,30.32,10.0,Calm,Calm,-,N/A,,Clear,0,2012-10-10 10:15:00
4:35 AM,23.9,16.5,73,30.32,10.0,Calm,Calm,-,N/A,,Clear,0,2012-10-10 10:35:00
4:55 AM,23.7,16.5,74,30.32,10.0,Calm,Calm,-,N/A,,Clear,0,2012-10-10 10:55:00
5:15 AM,23.5,15.6,72,30.32,10.0,Calm,Calm,-,N/A,,Clear,0,2012-10-10 11:15:00
5:35 AM,22.8,15.6,74,30.33,10.0,Calm,Calm,-,N/A,,Clear,0,2012-10-10 11:35:00
5:55 AM,25.5,17.2,71,30.33,10.0,Calm,Calm,-,N/A,,Clear,0,2012-10-10 11:55:00
6:15 AM,22.3,15.6,76,30.33,10.0,Calm,Calm,-,N/A,,Clear,0,2012-10-10 12:15:00
6:35 AM,23.7,16.5,74,30.34,10.0,Calm,Calm,-,N/A,,Clear,0,2012-10-10 12:35:00
6:55 AM,22.6,15.8,75,30.34,10.0,Calm,Calm,-,N/A,,Clear,0,2012-10-10 12:55:00
7:15 AM,23.9,16.9,75,30.35,10.0,Calm,Calm,-,N/A,,Clear,0,2012-10-10 13:15:00
7:35 AM,23.7,17.4,77,30.35,10.0,Calm,Calm,-,N/A,,Clear,0,2012-10-10 13:35:00
7:55 AM,23.7,16.7,75,30.35,7.0,Calm,Calm,-,N/A,,Clear,0,2012-10-10 13:55:00
8:15 AM,25.5,18.0,73,30.36,10.0,Calm,Calm,-,N/A,,Clear,0,2012-10-10 14:15:00
8:35 AM,26.8,20.1,76,30.36,7.0,Calm,Calm,-,N/A,,Clear,0,2012-10-10 14:35:00
8:55 AM,33.1,22.6,66,30.37,10.0,Calm,Calm,-,N/A,,Clear,0,2012-10-10 14:55:00
9:15 AM,36.3,22.6,58,30.37,10.0,Calm,Calm,-,N/A,,Clear,0,2012-10-10 15:15:00
9:35 AM,40.8,23.2,50,30.36,10.0,Calm,Calm,-,N/A,,Clear,0,2012-10-10 15:35:00
9:55 AM,45.7,23.2,41,30.35,10.0,Calm,Calm,-,N/A,,Clear,0,2012-10-10 15:55:00
10:15 AM,51.8,24.1,34,30.35,10.0,East,3.5,-,N/A,,Clear,90,2012-10-10 16:15:00
10:55 AM,60.6,17.6,19,30.34,10.0,West,12.7,17.3,N/A,,Clear,270,2012-10-10 16:55:00
11:15 AM,62.1,18.7,19,30.34,10.0,West,15.0,23.0,N/A,,Clear,270,2012-10-10 17:15:00
11:35 AM,61.7,17.8,18,30.34,10.0,West,13.8,20.7,N/A,,Clear,270,2012-10-10 17:35:00
11:55 AM,62.4,18.0,18,30.33,10.0,West,16.1,23.0,N/A,,Clear,270,2012-10-10 17:55:00
12:15 PM,63.0,18.1,18,30.33,10.0,West,16.1,19.6,N/A,,Clear,280,2012-10-10 18:15:00
12:35 PM,63.3,18.9,18,30.32,10.0,West,13.8,20.7,N/A,,Clear,270,2012-10-10 18:35:00
12:55 PM,63.9,18.1,17,30.31,10.0,West,13.8,23.0,N/A,,Clear,270,2012-10-10 18:55:00
1:15 PM,63.7,18.1,17,30.30,10.0,WNW,17.3,24.2,N/A,,Clear,290,2012-10-10 19:15:00
1:35 PM,64.4,18.0,17,30.29,10.0,West,16.1,23.0,N/A,,Clear,280,2012-10-10 19:35:00
1:55 PM,64.2,16.9,16,30.28,10.0,WNW,5.8,18.4,N/A,,Clear,300,2012-10-10 19:55:00
2:15 PM,65.5,16.7,15,30.26,10.0,West,12.7,20.7,N/A,,Clear,280,2012-10-10 20:15:00
2:35 PM,65.7,16.3,15,30.26,10.0,West,16.1,24.2,N/A,,Clear,280,2012-10-10 20:35:00
2:55 PM,66.4,15.6,14,30.26,10.0,WSW,13.8,18.4,N/A,,Clear,250,2012-10-10 20:55:00
3:15 PM,65.8,16.3,15,30.26,10.0,West,12.7,21.9,N/A,,Clear,280,2012-10-10 21:15:00
3:35 PM,65.8,15.1,14,30.25,10.0,West,18.4,26.5,N/A,,Clear,280,2012-10-10 21:35:00
3:55 PM,65.1,15.8,15,30.25,10.0,West,18.4,26.5,N/A,,Clear,260,2012-10-10 21:55:00
4:15 PM,65.1,14.5,14,30.24,10.0,West,12.7,26.5,N/A,,Clear,280,2012-10-10 22:15:00
4:35 PM,64.9,13.5,14,30.24,10.0,SW,16.1,23.0,N/A,,Clear,230,2012-10-10 22:35:00
4:55 PM,64.8,12.4,13,30.24,10.0,WSW,17.3,23.0,N/A,,Clear,240,2012-10-10 22:55:00
5:15 PM,64.0,12.9,14,30.24,10.0,WSW,12.7,19.6,N/A,,Clear,240,2012-10-10 23:15:00
5:35 PM,63.5,13.8,14,30.24,10.0,WSW,15.0,-,N/A,,Clear,240,2012-10-10 23:35:00
5:55 PM,62.2,14.5,16,30.24,10.0,SW,11.5,-,N/A,,Clear,230,2012-10-10 23:55:00
6:15 PM,59.2,17.1,19,30.24,10.0,SW,6.9,-,N/A,,Clear,220,2012-10-11 00:15:00
6:35 PM,54.9,18.1,24,30.24,10.0,SW,6.9,-,N/A,,Clear,220,2012-10-11 00:35:00
6:55 PM,55.6,19.2,24,30.25,10.0,SW,8.1,-,N/A,,Clear,220,2012-10-11 00:55:00
7:15 PM,47.1,21.2,36,30.26,10.0,WNW,3.5,-,N/A,,Clear,290,2012-10-11 01:15:00
7:35 PM,46.6,21.7,37,30.27,10.0,Calm,Calm,-,N/A,,Clear,0,2012-10-11 01:35:00
7:55 PM,42.6,21.4,43,30.27,10.0,Calm,Calm,-,N/A,,Clear,0,2012-10-11 01:55:00
8:15 PM,41.2,21.9,46,30.27,10.0,Calm,Calm,-,N/A,,Clear,0,2012-10-11 02:15:00
8:35 PM,41.0,21.6,46,30.28,10.0,Calm,Calm,-,N/A,,Clear,0,2012-10-11 02:35:00
8:55 PM,39.7,21.0,47,30.29,10.0,WSW,4.6,-,N/A,,Clear,250,2012-10-11 02:55:00
9:15 PM,37.2,21.0,52,30.29,10.0,Calm,Calm,-,N/A,,Clear,0,2012-10-11 03:15:00
9:35 PM,35.1,20.5,55,30.31,10.0,Calm,Calm,-,N/A,,Clear,0,2012-10-11 03:35:00
9:55 PM,36.3,20.3,52,30.31,10.0,Calm,Calm,-,N/A,,Clear,0,2012-10-11 03:55:00
10:15 PM,35.2,20.1,54,30.31,10.0,Calm,Calm,-,N/A,,Clear,0,2012-10-11 04:15:00
10:35 PM,33.6,20.3,58,30.31,10.0,Calm,Calm,-,N/A,,Clear,0,2012-10-11 04:35:00
10:55 PM,34.7,20.5,56,30.31,10.0,SSE,5.8,-,N/A,,Clear,150,2012-10-11 04:55:00
11:15 PM,32.9,20.1,59,30.30,10.0,Calm,Calm,-,N/A,,Clear,0,2012-10-11 05:15:00
11:35 PM,32.0,19.6,60,30.30,10.0,SSW,4.6,-,N/A,,Clear,210,2012-10-11 05:35:00
11:55 PM,34.9,20.5,56,30.30,10.0,South,3.5,-,N/A,,Clear,180,2012-10-11 05:55:00